This is the latest recevied weather packets stored in our database for station/object KC5DAQ-25. If no packets are shown the sender has not sent any weather packets the latest 10 day(s).
| Time | Temp. | Humidity | Pressure | Rain* | Wind** | Luminosity | Snow |
|---|---|---|---|---|---|---|---|
| 1777477151 | 26.67° C | 81% | 1004.7 hPa | 0 mm | - | 244 W/m² | - |
| 1777477089 | 26.67° C | 81% | 1004.6 hPa | 0 mm | - | 243 W/m² | - |
| 1777477030 | 26.67° C | 82% | 1004.7 hPa | 0 mm | - | 243 W/m² | - |
| 1777476970 | 26.67° C | 82% | 1004.5 hPa | 0 mm | - | 223 W/m² | - |
| 1777476909 | 26.67° C | 82% | 1004.6 hPa | 0 mm | - | 223 W/m² | - |
| 1777476848 | 26.67° C | 82% | 1004.5 hPa | 0 mm | - | 223 W/m² | - |
| 1777476783 | 26.67° C | 82% | 1004.5 hPa | 0 mm | - | 171 W/m² | - |
| 1777476724 | 26.67° C | 82% | 1004.5 hPa | 0 mm | - | 171 W/m² | - |
| 1777476663 | 26.67° C | 83% | 1004.5 hPa | 0 mm | - | 171 W/m² | - |
| 1777476605 | 26.67° C | 83% | 1004.5 hPa | 0 mm | - | 262 W/m² | - |
| 1777476542 | 26.67° C | 83% | 1004.4 hPa | 0 mm | - | 262 W/m² | - |
| 1777476482 | 26.67° C | 83% | 1004.4 hPa | 0 mm | - | 262 W/m² | - |
| 1777476424 | 26.67° C | 83% | 1004.4 hPa | 0 mm | - | 262 W/m² | - |
| 1777476364 | 26.67° C | 83% | 1004.4 hPa | 0 mm | - | 262 W/m² | - |
| 1777476305 | 26.67° C | 83% | 1004.4 hPa | 0 mm | - | 274 W/m² | - |
| 1777476242 | 26.67° C | 83% | 1004.3 hPa | 0 mm | - | 248 W/m² | - |
| 1777476182 | 26.67° C | 83% | 1004.3 hPa | 0 mm | - | 248 W/m² | - |
| 1777476123 | 26.67° C | 83% | 1004.2 hPa | 0 mm | - | 248 W/m² | - |
| 1777476063 | 26.67° C | 84% | 1004.3 hPa | 0 mm | - | 341 W/m² | - |
| 1777476003 | 26.67° C | 84% | 1004.2 hPa | 0 mm | - | 364 W/m² | - |
| 1777475943 | 26.67° C | 84% | 1004.3 hPa | 0 mm | - | 364 W/m² | - |
| 1777475883 | 26.67° C | 84% | 1004.3 hPa | 0 mm | - | 364 W/m² | - |
| 1777475823 | 26.11° C | 84% | 1004.4 hPa | 0 mm | - | 364 W/m² | - |
| 1777475764 | 26.11° C | 84% | 1004.3 hPa | 0 mm | - | 338 W/m² | - |
| 1777475703 | 26.11° C | 84% | 1004.3 hPa | 0 mm | - | 338 W/m² | - |
* Rain latest hour (hover to see other rain measurements)
** Current wind speed in m/s (hover to see current wind gust speed)